Location: Catstown
(52.4386°N, 7.2633°W)
Time: 03:59:50
(UTC+00:00)

CZ-2C R/B - Pass Details

Date: 18 September 2020
Orbit: 785 x 870 km, 98.2° (Epoch: 18 October)

Event Time Altitude Azimuth Distance (km) Brightness Sun altitude
Rises 19:15:58 0° 22° (NNE) 3,409 5.7 -6.9°
Reaches altitude 10° 19:18:41 10° 34° (NE) 2,482 4.9 -7.3°
Maximum altitude 19:23:21 27° 92° (E) 1,581 3.6 -8.0°
Drops below altitude 10° 19:28:03 10° 149° (SSE) 2,502 4.7 -8.7°
Sets 19:30:48 0° 161° (SSE) 3,441 5.5 -9.1°
